Wind_Speed
6 5 4 3 3 3 4 5 6 7 7 6 6 5 4 3 3 4 4 5 7 9 9 9 10 10 11 12 12 12 12 12 13 13 13 13 13 13 13 13 13 13 13 13 13 13 13 13 12
7 5 3 2 1 2 3 4 5 5 4 3 4 4 3 3 3 3 3 5 7 8 8 8 9 9 10 11 11 11 11 11 11 11 12 12 12 12 12 12 12 12 12 11 11 11 11 11 11
8 7 4 1 1 1 3 5 5 5 3 3 2 2 3 3 3 3 3 4 5 6 7 7 8 8 9 9 10 10 10 10 10 10 10 10 11 11 11 11 11 11 11 10 10 10 10 10 10
10 8 6 4 2 1 3 5 6 5 4 3 2 2 3 3 3 3 4 4 5 5 6 7 7 8 8 8 9 9 9 9 9 9 9 10 10 10 10 10 10 10 10 10 9 9 9 9 9
12 10 8 6 5 4 2 3 5 4 3 2 1 2 3 3 4 5 6 5 5 6 7 8 8 9 9 9 9 8 8 8 8 8 9 9 10 10 10 10 10 10 10 10 10 10 9 9 9
14 13 11 9 7 7 5 3 2 2 1 0 2 3 3 4 5 6 7 8 8 9 9 10 10 9 9 9 9 9 8 8 8 8 9 9 10 10 10 10 10 10 10 10 10 10 10 10 9
16 15 14 12 11 9 7 5 3 2 1 2 3 4 5 5 6 7 8 9 9 10 10 10 10 10 10 10 10 10 9 9 9 10 10 10 11 11 11 11 11 11 11 11 11 11 11 11 11
19 18 17 16 14 12 11 9 6 3 2 3 4 5 6 6 6 7 8 9 9 10 10 10 11 11 11 11 12 12 11 11 12 12 12 12 12 12 13 13 13 13 13 13 13 13 13 13 12
21 21 20 18 17 15 13 12 10 7 5 4 4 5 5 6 7 8 8 9 9 10 10 11 11 12 13 13 14 14 14 15 15 15 15 15 15 15 16 16 16 16 16 16 16 16 16 15 15
22 22 22 20 19 16 14 14 12 10 8 6 5 5 6 7 9 10 10 10 11 11 12 12 13 14 15 16 17 17 18 18 18 18 18 19 19 19 19 19 20 20 20 20 20 20 20 19 18
22 23 23 21 19 17 15 14 14 13 11 10 8 8 8 9 11 12 13 14 14 15 16 16 17 18 19 20 21 22 22 22 23 23 23 23 24 24 23 24 24 24 24 24 24 24 23 23 22
22 23 23 21 19 18 17 16 15 14 15 14 13 12 13 13 14 15 17 17 18 19 21 22 23 24 24 25 26 27 27 28 28 28 28 28 28 29 28 28 28 28 28 29 29 29 28 27 27
23 23 23 21 20 19 19 19 18 19 19 19 18 18 18 19 19 19 20 21 22 24 25 26 27 28 29 30 31 32 32 33 33 32 33 33 32 33 33 33 32 32 32 32 32 33 32 31 31
26 25 24 22 22 21 21 21 21 22 24 23 23 23 24 24 24 23 23 24 25 27 28 29 30 32 32 33 35 36 37 37 37 37 38 37 36 36 37 37 36 36 35 35 35 36 36 35 35
29 27 26 26 26 26 26 25 24 26 27 27 27 27 28 28 28 28 27 27 27 28 29 30 31 32 33 34 35 36 37 38 39 39 40 40 40 39 39 39 39 38 38 38 38 39 40 39 39
33 31 30 30 30 30 30 29 27 29 30 30 30 30 30 31 30 30 30 29 29 29 30 30 31 32 33 34 34 36 37 38 38 39 40 40 41 42 42 41 40 39 40 40 40 41 42 42 42
34 34 33 33 34 33 33 33 31 32 32 33 32 32 32 30 29 29 30 30 31 31 31 32 33 33 33 34 35 36 37 37 37 37 37 37 39 39 40 40 40 40 40 41 42 42 42 42 42
34 35 35 35 35 36 35 35 34 34 34 34 34 32 30 28 27 28 30 31 32 34 34 34 34 34 35 35 36 37 37 36 36 36 36 37 38 39 40 39 40 40 40 40 41 42 42 42 41
32 33 34 35 35 35 35 35 34 34 34 34 33 30 28 28 28 30 31 32 33 34 34 35 35 35 36 37 37 36 36 35 35 35 34 35 36 37 39 39 38 39 40 40 42 42 41 41 40
29 30 31 32 33 33 33 34 33 33 33 32 31 30 29 29 30 32 32 32 33 34 35 35 36 36 37 37 37 36 35 35 34 34 34 34 34 35 36 37 38 39 39 40 40 40 41 40 41
26 27 28 29 30 31 32 32 32 32 31 31 31 30 30 31 32 34 33 33 34 35 36 36 36 36 36 36 36 35 34 34 34 33 33 33 34 34 35 36 37 38 38 39 39 40 40 39 39
22 24 25 25 26 27 29 31 31 31 32 32 32 32 33 34 34 33 32 33 34 36 36 36 35 35 35 35 34 33 33 32 32 33 33 34 34 34 35 36 37 38 38 38 38 38 39 39 38
19 20 21 22 22 24 26 29 30 30 32 33 33 33 33 32 31 31 30 31 33 34 35 35 34 33 33 32 32 32 31 32 32 33 33 34 34 34 35 36 37 38 38 39 39 38 38 38 38
17 18 19 20 20 22 24 25 27 28 28 29 30 29 29 29 28 28 29 30 32 33 33 33 32 32 32 32 31 31 31 31 32 32 33 34 35 35 36 36 37 38 39 39 39 39 39 38 38
15 15 16 17 17 18 20 21 22 23 24 24 25 26 26 26 26 27 28 30 31 31 31 31 31 31 31 31 31 31 31 32 32 33 33 34 34 35 36 37 37 38 39 39 39 39 39 39 39
13 13 14 14 15 16 17 18 19 20 21 22 23 24 25 26 26 27 28 28 29 30 30 30 30 31 31 31 31 31 32 32 33 33 34 34 35 35 36 36 37 38 39 39 39 39 39 40 39
12 12 13 14 14 15 16 17 18 20 21 22 23 24 25 25 26 27 28 29 29 30 30 30 31 31 32 32 32 32 33 33 34 34 35 35 35 35 36 36 37 37 38 39 39 39 39 39 39
12 12 13 14 16 16 16 18 18 19 20 22 24 25 26 27 28 29 30 30 31 32 32 32 33 34 34 35 35 35 35 35 36 36 36 36 36 36 36 36 36 36 37 38 38 39 40 40 39
12 13 14 16 18 20 20 21 21 22 24 25 26 27 28 30 31 32 33 34 35 35 36 36 37 37 38 38 38 39 39 38 38 38 38 37 37 36 36 36 36 36 36 36 36 37 38 38 38
13 15 17 20 21 23 25 26 24 25 27 28 30 31 32 33 35 36 37 39 40 41 42 42 42 42 42 42 42 42 42 41 41 40 40 39 37 37 37 37 36 35 35 35 35 34 35 35 36
Wind_Direction
146 136 119 109 94 100 110 109 117 111 108 116 123 135 136 105 85 75 66 53 45 40 34 29 28 30 32 34 35 35 35 35 35 33 31 29 28 26 24 23 24 24 25 25 26 28 30 32 32
172 163 151 118 84 116 133 122 105 86 79 92 106 115 108 86 76 59 47 40 38 32 22 17 19 21 22 24 25 25 24 24 23 21 19 18 17 16 15 15 15 16 17 17 18 20 22 24 25
192 193 200 250 343 231 156 140 124 104 95 80 68 61 50 46 37 24 19 19 24 17 3 359 4 9 10 10 11 13 12 9 7 5 5 5 5 5 5 6 6 6 5 6 7 10 11 12 14
208 211 219 248 300 291 190 156 146 132 113 84 49 18 8 8 1 347 341 351 358 350 339 339 344 347 350 352 352 355 356 353 351 350 351 351 353 353 353 353 354 353 352 352 354 355 356 358 359
219 225 231 248 274 270 242 180 152 143 125 89 34 350 341 337 331 323 318 322 322 317 315 320 325 328 329 331 333 335 337 337 336 335 334 335 336 338 338 339 339 340 340 340 340 340 341 343 345
229 234 241 251 262 271 274 251 195 161 159 42 317 317 318 317 315 312 309 308 307 305 306 312 316 317 318 318 319 319 320 320 318 317 317 319 321 323 324 324 324 324 325 327 327 327 327 328 329
235 240 245 250 256 263 273 272 252 235 244 304 316 314 309 304 303 304 304 306 306 305 307 309 310 309 309 309 308 306 307 307 306 306 306 306 308 309 309 310 310 310 310 312 313 314 315 315 315
239 244 247 250 254 261 270 278 282 272 275 309 315 311 311 311 308 306 307 310 311 311 312 312 310 308 306 305 303 301 299 299 299 298 297 297 297 297 298 298 299 299 299 300 300 301 301 303 303
238 243 247 251 257 263 272 281 285 287 290 305 316 310 308 310 310 310 310 310 309 310 310 310 309 308 306 303 301 299 297 296 295 294 292 290 290 290 290 291 291 291 291 292 292 292 293 292 292
236 240 246 251 257 264 273 284 289 288 284 286 295 295 297 299 303 305 304 302 302 302 302 302 301 299 299 297 295 294 294 293 292 290 288 286 285 284 284 284 284 285 285 285 285 285 286 285 285
236 239 245 249 255 262 273 283 287 285 282 280 282 283 287 291 294 296 295 294 294 294 294 293 292 292 292 291 291 290 288 287 287 285 285 283 282 281 280 280 280 280 281 281 281 281 280 280 280
239 243 247 251 255 259 266 277 285 284 282 281 281 282 285 286 286 287 289 288 288 288 289 289 288 288 288 287 286 286 285 282 283 283 280 280 278 277 276 276 276 276 277 278 278 278 277 276 276
240 245 250 255 258 260 262 267 277 280 282 283 285 287 287 287 285 285 286 285 285 285 286 286 286 287 287 286 286 287 286 284 283 282 280 278 278 275 273 272 273 273 274 273 274 275 274 274 273
240 245 251 256 259 260 259 262 269 276 280 283 286 286 287 289 290 288 286 284 283 283 283 283 284 285 286 287 286 287 287 284 281 280 278 277 277 273 269 270 271 272 273 273 273 272 271 271 270
242 243 247 252 255 258 260 262 267 273 277 280 283 285 287 288 289 290 290 290 288 287 286 286 286 286 287 288 289 289 289 286 284 282 280 279 276 274 272 268 269 271 272 272 273 273 273 271 269
241 243 245 249 253 257 261 264 267 271 275 278 280 283 284 286 290 293 295 295 294 292 291 290 290 290 290 291 291 292 291 290 288 286 285 282 280 277 276 272 269 269 270 272 273 273 273 272 269
241 242 244 247 252 256 260 264 266 269 272 274 276 278 280 284 290 295 297 297 295 294 293 293 294 295 294 294 295 296 295 295 294 292 290 285 282 280 278 275 272 271 272 272 274 275 276 275 274
241 243 245 247 251 255 259 263 266 267 269 271 274 277 280 285 291 295 296 295 295 294 294 295 296 297 298 298 299 299 298 298 297 295 291 288 285 282 279 278 276 273 272 274 274 275 276 279 279
241 243 246 248 251 254 258 261 263 265 267 269 273 277 280 284 289 292 293 292 292 293 293 296 298 300 301 303 303 303 302 301 299 297 294 291 288 285 282 280 279 277 275 276 276 275 277 280 280
240 243 246 248 250 252 254 257 260 262 265 268 272 276 280 285 288 290 291 289 290 292 295 297 300 302 304 306 306 306 305 304 302 299 296 293 289 286 284 281 279 278 277 276 276 276 277 279 280
241 245 248 250 252 253 254 254 256 260 264 269 273 278 281 284 286 287 287 287 289 292 295 298 301 303 305 307 307 308 307 306 304 301 299 295 291 288 285 283 281 280 278 277 277 276 276 276 277
248 251 254 255 256 256 257 256 255 259 265 269 273 277 280 283 283 284 285 286 289 293 295 298 301 303 305 307 308 309 309 308 306 303 301 298 294 291 287 284 282 281 279 278 277 276 276 276 277
259 261 263 264 264 263 262 262 262 263 266 269 272 275 277 279 280 280 283 286 288 291 295 297 301 303 305 307 308 309 310 310 309 307 305 301 298 295 291 287 284 282 280 279 277 276 275 275 276
268 270 271 271 270 268 267 267 268 268 268 270 272 274 276 277 277 279 282 285 287 289 292 295 298 300 303 304 306 308 309 310 310 310 308 305 301 297 294 291 287 283 281 279 277 275 275 275 275
277 278 279 278 275 273 273 272 272 272 271 271 273 274 275 276 277 279 281 283 284 285 288 291 295 298 300 303 304 306 307 308 310 311 310 308 304 300 297 293 290 285 282 279 277 275 274 274 274
282 284 285 284 282 280 279 277 277 276 275 274 274 275 277 279 280 281 281 281 282 283 287 291 294 297 299 300 302 304 305 307 309 310 310 309 306 303 300 296 292 287 283 280 277 275 273 273 272
287 286 289 290 288 285 284 284 282 282 283 282 281 281 282 282 281 279 280 281 283 286 290 292 294 296 298 300 302 303 305 306 308 309 309 309 308 305 302 299 295 290 285 282 278 275 273 272 271
295 296 294 294 294 291 288 287 290 290 292 291 289 288 287 286 283 282 284 286 288 290 293 295 296 298 299 301 302 304 304 305 306 307 308 308 308 306 303 301 297 293 289 285 280 277 274 272 270
302 299 296 295 295 296 296 293 297 298 296 294 292 291 289 288 287 288 290 291 293 295 297 298 299 300 301 302 303 304 304 304 305 305 306 306 306 306 304 302 299 295 291 288 284 280 276 272 270
301 300 298 297 298 298 300 301 301 299 296 294 292 291 290 290 291 292 294 296 298 299 299 300 300 301 301 301 301 302 302 302 303 304 304 304 305 305 304 303 301 298 294 291 288 283 277 273 270
Height
5917 5918 5918 5919 5920 5919 5918 5918 5917 5917 5918 5918 5918 5918 5919 5920 5921 5922 5920 5919 5918 5918 5917 5917 5916 5915 5913 5912 5911 5910 5909 5909 5908 5908 5907 5907 5906 5906 5905 5904 5903 5902 5901 5900 5899 5898 5897 5896 5895
5918 5919 5920 5921 5920 5920 5920 5919 5918 5919 5919 5919 5919 5919 5920 5920 5920 5920 5920 5919 5918 5918 5918 5917 5916 5915 5914 5912 5911 5911 5910 5909 5909 5908 5908 5907 5906 5905 5905 5904 5903 5902 5901 5900 5900 5899 5898 5897 5896
5919 5920 5921 5921 5921 5921 5921 5920 5920 5920 5920 5919 5919 5919 5920 5920 5920 5920 5920 5919 5919 5918 5918 5917 5916 5915 5914 5913 5912 5911 5910 5909 5909 5908 5907 5907 5906 5905 5904 5903 5902 5901 5901 5900 5899 5898 5898 5897 5896
5919 5921 5921 5922 5921 5921 5921 5921 5920 5920 5920 5920 5920 5920 5920 5921 5920 5920 5920 5919 5918 5918 5918 5917 5916 5914 5913 5912 5911 5910 5909 5909 5908 5907 5907 5906 5905 5904 5903 5902 5901 5900 5900 5899 5898 5898 5897 5896 5895
5919 5920 5921 5920 5921 5921 5921 5921 5921 5921 5921 5921 5921 5921 5920 5920 5920 5920 5919 5919 5918 5918 5917 5916 5915 5914 5912 5911 5910 5910 5909 5908 5907 5906 5906 5905 5904 5903 5902 5901 5900 5899 5898 5897 5897 5896 5895 5895 5894
5918 5919 5920 5920 5920 5921 5921 5921 5921 5921 5921 5921 5921 5921 5920 5920 5920 5919 5919 5918 5918 5917 5916 5915 5914 5912 5911 5910 5909 5908 5907 5907 5906 5905 5904 5903 5903 5902 5901 5900 5899 5898 5897 5896 5895 5894 5894 5893 5892
5917 5917 5918 5919 5919 5920 5921 5920 5920 5920 5921 5921 5921 5920 5919 5919 5919 5919 5918 5918 5917 5916 5915 5913 5912 5911 5910 5909 5908 5907 5906 5905 5904 5904 5903 5902 5901 5900 5899 5898 5897 5896 5895 5894 5893 5892 5892 5891 5890
5914 5916 5916 5917 5918 5919 5920 5920 5920 5920 5920 5920 5920 5919 5919 5918 5918 5918 5917 5916 5915 5914 5913 5912 5911 5910 5908 5907 5906 5905 5904 5904 5903 5902 5901 5900 5899 5898 5897 5896 5895 5894 5893 5892 5891 5891 5890 5889 5888
5912 5914 5914 5915 5916 5917 5918 5919 5919 5919 5919 5919 5919 5919 5918 5917 5917 5916 5915 5915 5914 5913 5911 5910 5909 5908 5907 5906 5905 5904 5903 5902 5901 5899 5898 5897 5896 5895 5894 5893 5892 5891 5890 5890 5889 5888 5887 5886 5885
5909 5910 5911 5913 5914 5915 5916 5917 5917 5918 5918 5918 5918 5917 5917 5916 5915 5915 5914 5913 5912 5910 5909 5908 5907 5905 5904 5903 5902 5901 5900 5899 5898 5897 5895 5894 5893 5892 5891 5890 5888 5887 5887 5886 5885 5884 5883 5882 5882
5907 5908 5908 5910 5912 5913 5914 5914 5914 5915 5915 5916 5916 5916 5915 5915 5914 5913 5911 5910 5909 5908 5906 5905 5903 5902 5900 5899 5898 5897 5896 5895 5893 5893 5892 5890 5889 5888 5886 5885 5884 5883 5882 5881 5880 5879 5879 5878 5877
5905 5905 5906 5908 5910 5911 5911 5911 5911 5912 5912 5913 5913 5913 5913 5912 5912 5910 5909 5907 5906 5904 5902 5900 5899 5897 5896 5895 5893 5892 5891 5889 5888 5887 5886 5885 5883 5882 5881 5879 5878 5877 5876 5875 5874 5874 5873 5872 5871
5902 5902 5904 5906 5907 5908 5908 5908 5909 5909 5909 5909 5909 5910 5909 5909 5908 5907 5906 5904 5901 5899 5897 5895 5893 5892 5890 5889 5887 5885 5884 5883 5882 5880 5879 5878 5876 5875 5874 5872 5871 5870 5869 5868 5867 5867 5866 5865 5865
5898 5900 5901 5903 5903 5904 5905 5905 5906 5905 5905 5905 5905 5905 5904 5904 5903 5902 5901 5899 5896 5894 5892 5890 5887 5886 5884 5882 5880 5879 5877 5875 5874 5872 5870 5869 5868 5866 5865 5864 5863 5862 5861 5860 5859 5859 5858 5857 5856
5894 5897 5898 5898 5898 5899 5900 5902 5902 5902 5901 5901 5901 5900 5899 5898 5897 5895 5894 5892 5890 5888 5886 5883 5881 5879 5877 5875 5874 5872 5869 5867 5865 5863 5861 5859 5857 5856 5855 5855 5855 5854 5852 5851 5850 5850 5849 5848 5847
5889 5891 5893 5893 5894 5894 5897 5897 5898 5897 5897 5896 5896 5895 5893 5892 5890 5888 5887 5885 5883 5881 5879 5877 5875 5873 5871 5868 5866 5864 5862 5859 5857 5855 5852 5850 5849 5847 5846 5845 5845 5844 5843 5842 5841 5840 5839 5838 5837
5882 5885 5887 5888 5888 5889 5890 5891 5892 5892 5892 5891 5890 5889 5888 5886 5884 5882 5880 5878 5876 5873 5871 5869 5868 5866 5863 5861 5859 5857 5854 5852 5850 5847 5844 5842 5840 5838 5837 5836 5836 5835 5834 5833 5832 5831 5829 5828 5827
5877 5879 5880 5882 5883 5884 5884 5885 5886 5886 5885 5885 5884 5883 5882 5881 5879 5877 5875 5872 5869 5866 5864 5861 5860 5858 5856 5853 5851 5849 5846 5844 5841 5839 5837 5835 5833 5831 5829 5827 5827 5826 5824 5824 5823 5822 5821 5819 5817
5871 5873 5875 5876 5877 5878 5878 5879 5879 5879 5879 5878 5878 5877 5877 5876 5874 5872 5869 5866 5864 5861 5858 5855 5853 5851 5848 5846 5843 5840 5838 5835 5833 5831 5828 5826 5824 5822 5820 5819 5819 5817 5816 5816 5815 5813 5812 5811 5810
5867 5868 5869 5871 5872 5872 5873 5873 5873 5873 5872 5872 5872 5872 5871 5870 5868 5866 5863 5861 5858 5855 5852 5849 5846 5843 5840 5838 5835 5832 5829 5827 5825 5822 5820 5818 5816 5814 5812 5810 5809 5808 5807 5807 5806 5805 5804 5803 5801
5863 5864 5865 5866 5866 5867 5868 5868 5868 5867 5867 5866 5866 5866 5865 5863 5862 5860 5857 5854 5851 5848 5845 5842 5839 5836 5833 5830 5827 5824 5821 5818 5816 5814 5812 5810 5808 5806 5804 5802 5800 5799 5798 5797 5797 5796 5795 5794 5793
5860 5860 5861 5861 5862 5862 5863 5862 5863 5862 5862 5861 5861 5860 5859 5857 5856 5853 5851 5848 5845 5842 5839 5836 5833 5830 5827 5823 5820 5817 5814 5811 5809 5806 5803 5801 5799 5797 5795 5793 5791 5790 5789 5787 5787 5786 5785 5785 5785
5857 5857 5857 5857 5857 5857 5857 5857 5858 5857 5857 5856 5855 5854 5853 5851 5850 5848 5845 5842 5839 5836 5833 5830 5827 5823 5820 5817 5813 5810 5807 5804 5801 5798 5796 5793 5790 5787 5785 5783 5781 5780 5778 5777 5777 5776 5775 5775 5775
5855 5855 5854 5854 5853 5853 5852 5852 5852 5851 5851 5851 5850 5849 5847 5846 5844 5842 5839 5837 5833 5830 5827 5824 5821 5817 5814 5811 5807 5804 5801 5798 5794 5791 5788 5784 5781 5778 5776 5773 5771 5769 5768 5767 5766 5765 5765 5765 5764
5853 5852 5851 5850 5849 5849 5848 5848 5848 5846 5846 5845 5844 5843 5842 5840 5838 5835 5833 5830 5827 5824 5821 5818 5815 5811 5808 5804 5801 5797 5794 5791 5787 5784 5780 5777 5773 5769 5766 5763 5761 5759 5757 5756 5755 5754 5754 5754 5753
5850 5850 5849 5848 5847 5846 5844 5844 5844 5842 5841 5840 5839 5837 5835 5833 5831 5829 5826 5823 5820 5817 5814 5811 5808 5805 5801 5798 5794 5790 5787 5783 5780 5776 5772 5769 5765 5761 5757 5754 5751 5748 5746 5744 5743 5743 5742 5742 5742
5848 5847 5846 5845 5843 5842 5841 5840 5839 5837 5836 5835 5833 5831 5829 5827 5824 5821 5818 5816 5813 5810 5807 5803 5800 5797 5793 5790 5786 5783 5779 5775 5772 5768 5764 5760 5756 5752 5748 5744 5741 5738 5735 5733 5732 5731 5730 5730 5730
5846 5844 5843 5842 5840 5839 5838 5836 5836 5834 5832 5830 5827 5825 5822 5819 5816 5813 5810 5807 5804 5801 5798 5795 5792 5788 5785 5781 5777 5774 5770 5767 5763 5759 5755 5751 5747 5743 5739 5735 5731 5728 5725 5722 5720 5719 5718 5718 5718
5843 5842 5840 5838 5836 5834 5832 5833 5831 5828 5826 5823 5820 5817 5814 5811 5807 5804 5801 5798 5795 5792 5789 5785 5782 5779 5775 5772 5768 5764 5761 5757 5754 5750 5746 5742 5738 5734 5730 5725 5721 5718 5714 5711 5709 5707 5706 5706 5706
5840 5838 5836 5834 5832 5829 5827 5827 5824 5821 5818 5815 5812 5808 5805 5801 5798 5795 5791 5788 5784 5781 5778 5775 5771 5768 5765 5761 5758 5754 5751 5747 5744 5740 5737 5733 5729 5725 5720 5716 5712 5708 5705 5701 5699 5697 5695 5694 5694